EDRS-C

Last updated on Wed Dec 17 2025 00:02:53 GMT+0000 (Coordinated Universal Time)

1 44475U 19049A 25350.29945963 -.00000239 00000+0 00000+0 0 9992 2 44475 0.0588 105.6264 0000890 194.0093 35.8546 1.00269413 23376
UTC large
Height (km)
Speed (km/s)
/
Latitude / Longitude
Inclination (degrees)
Orbital Period (minutes)
Azimuth
Elevation
Range (km)
Doppler Factor

Next 0 passes for location: London (51.5072 / 0.1276)

Sorry there are no passes over London.